Weather History for Tacoma, WA

Change the Weather History Date:

Sunday, October 2, 2011

  Actual Average Record
Temperature  
Mean Temperature 54 °F -  
Max Temperature 64 °F 63 °F 77 °F (1993)
Min Temperature 45 °F 43 °F 30 °F (1968)
Degree Days  
Heating Degree Days 10    
Growing Degree Days 4 (Base 50)    
Moisture  
Dew Point 51 °F    
Average Humidity 86    
Maximum Humidity 97    
Minimum Humidity 64    
Precipitation  
Precipitation 0.30 in - - ()
Sea Level Pressure  
Sea Level Pressure 29.93 in    
Wind  
Wind Speed 3 mph (SSE)    
Max Wind Speed 9 mph    
Max Gust Speed -    
Visibility 9 miles    
Events Rain    
Averages and records for this station are not official NWS values.
T = Trace of Precipitation, MM = Missing Value Source: NWS Daily Summary

Daily Weather History Graph

Daily Weather History Graph

Search for Another Location

Airport:

Trip Planner

Search our weather history database for the weather conditions in past years. The results will help you decide how hot, cold, wet, or windy it might be!

Date:

Astronomy

Oct. 02, 2011 Rise Set
Actual Time 7:09 AM PDT 6:47 PM PDT
Civil Twilight 6:39 AM PDT 7:18 PM PDT
Nautical Twilight 6:04 AM PDT 7:53 PM PDT
Astronomical Twilight 5:27 AM PDT 8:29 PM PDT
Moon 1:44 PM PDT (10/2) 10:29 PM PDT (10/2)
Length of Visible Light 12h 38m
Length of Day
11h 37m
Waxing Crescent, 36% of the Moon is Illuminated
Oct 2
Waxing Crescent
Oct 3
First Quarter
Oct 11
Full
Oct 19
Last Quarter
Oct 26
New

Hourly Weather History & Observations

Time (PDT) Temp. Dew Point Humidity Pressure Visibility Wind Dir Wind Speed Gust Speed Precip Events Conditions
12:58 AM 46.4 °F 44.6 °F 93% 30.02 in 10.0 mi Calm Calm - N/A   Mostly Cloudy
1:58 AM 47.7 °F 45.9 °F 93% 30.02 in 10.0 mi SSW 2.3 mph - N/A   Mostly Cloudy
2:58 AM 46.4 °F 45.3 °F 96% 30.02 in 10.0 mi South 2.3 mph - N/A   Clear
3:58 AM 45.5 °F 44.8 °F 97% 30.01 in 8.0 mi SSW 1.2 mph - N/A   Mostly Cloudy
4:58 AM 46.4 °F 45.3 °F 96% 30.01 in 10.0 mi NE 1.2 mph - N/A   Overcast
5:59 AM 46.0 °F 44.8 °F 95% 29.99 in 10.0 mi North - - N/A   Overcast
6:58 AM 47.5 °F 46.4 °F 96% 30.00 in 10.0 mi North - - N/A   Overcast
7:27 AM 50.0 °F 46.4 °F 87% 29.95 in 10.0 mi North - - N/A   Overcast
7:58 AM 49.6 °F 47.5 °F 92% 30.00 in 10.0 mi North - - N/A   Overcast
8:18 AM 51.8 °F 48.2 °F 88% 29.95 in 10.0 mi SW 1.2 mph - N/A   Overcast
8:23 AM 51.8 °F 48.2 °F 88% 29.95 in 10.0 mi South 2.3 mph - N/A   Overcast
8:58 AM 51.4 °F 49.3 °F 92% 29.99 in 10.0 mi North - - N/A   Overcast
9:03 AM 51.8 °F 50.0 °F 94% 29.95 in 10.0 mi North - - N/A   Overcast
9:58 AM 56.1 °F 50.5 °F 82% 29.99 in 10.0 mi ESE 3.5 mph - N/A   Overcast
10:58 AM 58.3 °F 50.7 °F 76% 29.99 in 10.0 mi WSW 3.5 mph - N/A   Partly Cloudy
11:58 AM 60.6 °F 50.4 °F 69% 29.96 in 10.0 mi NW 3.5 mph - N/A   Clear
12:53 PM 62.6 °F 51.8 °F 68% 29.92 in 10.0 mi Variable 3.5 mph - N/A   Mostly Cloudy
12:58 PM 62.2 °F 51.6 °F 68% 29.96 in 10.0 mi NNW 3.5 mph - N/A   Mostly Cloudy
1:03 PM 62.6 °F 51.8 °F 68% 29.92 in 10.0 mi NNW 3.5 mph - N/A   Mostly Cloudy
1:08 PM 62.6 °F 51.8 °F 68% 29.92 in 10.0 mi NW 5.8 mph - N/A   Mostly Cloudy
1:13 PM 60.8 °F 51.8 °F 72% 29.92 in 10.0 mi NW 4.6 mph - N/A   Mostly Cloudy
1:18 PM 60.8 °F 51.8 °F 72% 29.92 in 10.0 mi NNW 6.9 mph - N/A   Overcast
1:58 PM 62.6 °F 51.4 °F 67% 29.94 in 10.0 mi NW 4.6 mph - N/A   Mostly Cloudy
2:58 PM 64.2 °F 51.8 °F 64% 29.93 in 10.0 mi Variable 1.2 mph - N/A   Partly Cloudy
3:42 PM 62.6 °F 51.8 °F 68% 29.89 in 10.0 mi NNE 6.9 mph - N/A Rain Light Rain
3:58 PM 61.7 °F 53.4 °F 74% 29.92 in 7.0 mi ENE 3.5 mph - 0.02 in Rain Light Rain
4:18 PM 60.8 °F 55.4 °F 82% 29.88 in 2.5 mi SSW 9.2 mph - N/A Rain Light Rain
4:23 PM 59.0 °F 55.4 °F 88% 29.89 in 1.2 mi Variable 3.5 mph - N/A Rain Heavy Rain
4:33 PM 59.0 °F 55.4 °F 88% 29.89 in 4.0 mi Variable 4.6 mph - N/A Rain Light Rain
4:56 PM 57.2 °F 53.6 °F 88% 29.89 in 5.0 mi Variable 5.8 mph - N/A   Overcast
4:57 PM 57.2 °F 55.4 °F 94% 29.89 in 5.0 mi Variable 4.6 mph - N/A Rain Light Rain
4:58 PM 57.2 °F 55.4 °F 94% 29.93 in 5.0 mi SE 5.8 mph - 0.21 in Rain Light Rain
5:57 PM 57.2 °F 55.4 °F 94% 29.87 in 10.0 mi SE 4.6 mph - N/A   Scattered Clouds
5:58 PM 56.5 °F 54.5 °F 93% 29.91 in 10.0 mi SE 4.6 mph - 0.01 in   Scattered Clouds
6:16 PM 57.2 °F 55.4 °F 94% 29.87 in 10.0 mi SE 3.5 mph - N/A Rain Light Rain
6:58 PM 56.7 °F 55.2 °F 95% 29.91 in 10.0 mi SE 2.3 mph - 0.01 in   Light Drizzle
7:01 PM 57.2 °F 55.4 °F 94% 29.87 in 10.0 mi SE 2.3 mph - N/A   Scattered Clouds
7:58 PM 56.1 °F 53.8 °F 92% 29.90 in 10.0 mi South 3.5 mph - 0.00 in   Scattered Clouds
8:58 PM 55.4 °F 52.5 °F 90% 29.90 in 10.0 mi South 2.3 mph - N/A   Mostly Cloudy
8:59 PM 55.4 °F 51.8 °F 88% 29.86 in 10.0 mi North - - N/A Rain Light Rain
9:58 PM 54.9 °F 53.2 °F 94% 29.90 in 10.0 mi Variable 2.3 mph - 0.01 in Rain Light Rain
10:58 PM 54.9 °F 53.4 °F 95% 29.88 in 10.0 mi East 2.3 mph - 0.02 in Rain Light Rain
11:58 PM 54.5 °F 53.1 °F 95% 29.87 in 10.0 mi ESE 4.6 mph - 0.02 in Rain Light Rain